Weather History for KBVN - February, 2012

Change the Weather History Date:

Monday, February 20, 2012

  Actual Average (KOFK) Record (KOFK)
Temperature  
Mean Temperature 37 °F 28 °F  
Max Temperature 40 °F 38 °F 66 °F (1930)
Min Temperature 34 °F 18 °F -16 °F (1918)
Degree Days  
Heating Degree Days 28 37  
Month to date heating degree days 787  
Since 1 July heating degree days 4809  
Cooling Degree Days 0 0  
Month to date cooling degree days 0  
Year to date cooling degree days 0  
Moisture  
Dew Point 34 °F    
Average Humidity 87    
Maximum Humidity 96    
Minimum Humidity 67    
Precipitation  
Precipitation 0.00 in 0.03 in 0.53 in (1962)
Month to date precipitation 0.51  
Year to date precipitation 1.10  
Snow  
Snow 0.00 in 0.20 in - ()
Month to date snowfall 4.1  
Since 1 July snowfall 21.4  
Snow Depth -    
Sea Level Pressure  
Sea Level Pressure 29.66 in    
Wind  
Wind Speed 14 mph (SE)    
Max Wind Speed 18 mph    
Max Gust Speed 24 mph    
Visibility 5 miles    
Events Rain    
T = Trace of Precipitation, MM = Missing Value Source: NWS Daily Summary

Daily Weather History Graph

Daily Weather History Graph

Search for Another Location

Airport or City:

Trip Planner

Search our weather history database for the weather conditions in past years. The results will help you decide how hot, cold, wet, or windy it might be!

Date:

Astronomy

Feb. 20, 2012 Rise Set
Actual Time 7:21 AM CST 6:11 PM CST
Civil Twilight 6:53 AM CST 6:39 PM CST
Nautical Twilight 6:20 AM CST 7:11 PM CST
Astronomical Twilight 5:48 AM CST 7:44 PM CST
Moon 6:19 AM CST (2/20) 5:17 PM CST (2/20)
Length of Visible Light 11h 46m
Length of Day
10h 49m
Waning Crescent, 1% of the Moon is Illuminated
Feb 20
Waning Crescent
Feb 21
New
Feb 29
First Quarter
Mar 8
Full
Mar 14
Last Quarter

Hourly Weather History & Observations

Time (CST) Temp. Windchill Dew Point Humidity Pressure Visibility Wind Dir Wind Speed Gust Speed Precip Events Conditions
12:15 AM 37.4 °F 28.9 °F 27.9 °F 68% 29.82 in 10.0 mi SE 13.8 mph 17.3 mph N/A   Overcast
12:35 AM 37.8 °F 28.6 °F 27.9 °F 67% 29.82 in 10.0 mi SE 16.1 mph 19.6 mph N/A   Overcast
12:55 AM 37.4 °F 28.5 °F 28.0 °F 69% 29.82 in 10.0 mi SE 15.0 mph - N/A   Overcast
1:15 AM 37.4 °F 28.2 °F 28.2 °F 69% 29.81 in 10.0 mi SE 16.1 mph - N/A   Overcast
1:35 AM 37.4 °F 27.8 °F 28.2 °F 69% 29.80 in 10.0 mi SE 17.3 mph 23.0 mph N/A   Overcast
1:55 AM 37.4 °F 27.5 °F 28.4 °F 70% 29.80 in 10.0 mi SE 18.4 mph 24.2 mph N/A   Overcast
2:15 AM 37.6 °F 28.8 °F 28.4 °F 69% 29.80 in 10.0 mi SE 15.0 mph - N/A   Overcast
2:35 AM 37.6 °F 28.4 °F 28.4 °F 69% 29.79 in 10.0 mi SE 16.1 mph 20.7 mph N/A   Overcast
2:55 AM 37.4 °F 28.2 °F 28.4 °F 70% 29.78 in 10.0 mi SE 16.1 mph 23.0 mph N/A   Overcast
3:15 AM 37.2 °F 28.3 °F 28.4 °F 70% 29.78 in 10.0 mi SE 15.0 mph 21.9 mph N/A   Overcast
3:35 AM 37.2 °F 28.3 °F 28.9 °F 72% 29.77 in 10.0 mi SE 15.0 mph - N/A   Overcast
3:55 AM 37.4 °F 28.5 °F 28.9 °F 71% 29.75 in 10.0 mi SE 15.0 mph 23.0 mph N/A   Overcast
4:15 AM 36.9 °F 27.5 °F 29.3 °F 74% 29.75 in 7.0 mi SE 16.1 mph 20.7 mph N/A Rain Light Rain
4:35 AM 36.5 °F 27.4 °F 29.8 °F 77% 29.74 in 10.0 mi SE 15.0 mph - N/A   Light Drizzle
4:55 AM 36.7 °F 28.0 °F 30.6 °F 78% 29.73 in 10.0 mi SE 13.8 mph 20.7 mph N/A Rain Rain
5:15 AM 36.0 °F 26.7 °F 31.6 °F 84% 29.72 in 7.0 mi SE 15.0 mph 24.2 mph N/A Rain Light Rain
5:35 AM 35.4 °F 25.6 °F 31.8 °F 87% 29.72 in 10.0 mi SE 16.1 mph 23.0 mph N/A   Light Drizzle
5:55 AM 34.9 °F 24.9 °F 32.0 °F 89% 29.71 in 5.0 mi SE 16.1 mph - N/A   Overcast
6:15 AM 34.9 °F 24.6 °F 32.0 °F 89% 29.70 in 7.0 mi SE 17.3 mph 21.9 mph N/A Rain Light Rain
6:35 AM 35.1 °F 26.4 °F 32.0 °F 89% 29.70 in 5.0 mi SE 12.7 mph - N/A Rain Light Rain
6:55 AM 35.1 °F 25.5 °F 32.5 °F 91% 29.69 in 4.0 mi SE 15.0 mph - N/A Rain Rain
7:15 AM 34.9 °F 25.3 °F 32.2 °F 90% 29.68 in 5.0 mi SE 15.0 mph - N/A Rain Rain
7:35 AM 34.9 °F 25.7 °F 32.4 °F 91% 29.68 in 3.0 mi SE 13.8 mph 20.7 mph N/A Rain Light Rain
7:55 AM 35.2 °F 25.4 °F 32.9 °F 91% 29.67 in 4.0 mi SE 16.1 mph 20.7 mph N/A   Drizzle
8:15 AM 35.6 °F 26.6 °F 32.9 °F 90% 29.67 in 5.0 mi SE 13.8 mph - N/A   Light Drizzle
8:35 AM 36.1 °F 26.5 °F 33.4 °F 90% 29.66 in 5.0 mi SE 16.1 mph 20.7 mph N/A   Overcast
8:55 AM 36.5 °F 27.4 °F 33.6 °F 89% 29.66 in 5.0 mi SE 15.0 mph - N/A   Overcast
9:15 AM 36.5 °F 27.8 °F 33.8 °F 90% 29.65 in 5.0 mi SE 13.8 mph - N/A   Overcast
9:35 AM 36.5 °F 27.4 °F 34.0 °F 91% 29.64 in 3.0 mi SE 15.0 mph - N/A   Light Drizzle
9:55 AM 36.7 °F 26.9 °F 34.3 °F 91% 29.64 in 1.8 mi SSE 17.3 mph 24.2 mph N/A   Light Drizzle
10:15 AM 36.9 °F 27.8 °F 34.7 °F 92% 29.63 in 1.5 mi SSE 15.0 mph 20.7 mph N/A Rain Light Rain
10:35 AM 37.4 °F 27.8 °F 35.1 °F 91% 29.63 in 1.8 mi SSE 17.3 mph 23.0 mph N/A   Light Drizzle
10:55 AM 37.4 °F 28.9 °F 35.2 °F 92% 29.62 in 1.5 mi SSE 13.8 mph 21.9 mph N/A   Light Drizzle
11:15 AM 37.4 °F 28.5 °F 35.6 °F 93% 29.62 in 1.2 mi SSE 15.0 mph 20.7 mph N/A   Drizzle
11:35 AM 37.8 °F 28.6 °F 36.0 °F 93% 29.62 in 2.0 mi SSE 16.1 mph 21.9 mph N/A   Light Drizzle
11:55 AM 38.1 °F 31.2 °F 36.3 °F 93% 29.61 in 1.8 mi SSE 10.4 mph 18.4 mph N/A   Overcast
12:15 PM 38.3 °F 30.1 °F 36.5 °F 93% 29.61 in 1.8 mi SSE 13.8 mph - N/A   Overcast
12:35 PM 38.5 °F 30.7 °F 36.7 °F 93% 29.60 in 1.8 mi SSE 12.7 mph - N/A   Overcast
12:55 PM 38.7 °F 30.9 °F 37.0 °F 94% 29.59 in 2.0 mi SSE 12.7 mph - N/A   Overcast
1:15 PM 38.8 °F 31.2 °F 37.4 °F 95% 29.58 in 2.5 mi SSE 12.7 mph - N/A   Drizzle
1:35 PM 39.2 °F 32.5 °F 37.4 °F 93% 29.57 in 2.0 mi SSE 10.4 mph - N/A   Light Drizzle
1:55 PM 39.2 °F 32.0 °F 37.6 °F 94% 29.56 in 1.5 mi SSE 11.5 mph - N/A   Overcast
2:15 PM 39.4 °F 33.2 °F 37.9 °F 95% 29.55 in 1.2 mi SSE 9.2 mph - N/A   Overcast
2:35 PM 39.6 °F 32.5 °F 38.3 °F 95% 29.55 in 1.0 mi SE 11.5 mph - N/A   Overcast
2:55 PM 39.4 °F 33.2 °F 38.1 °F 95% 29.55 in 1.0 mi SE 9.2 mph - N/A   Overcast
3:15 PM 39.2 °F 34.2 °F 37.9 °F 95% 29.54 in 1.0 mi SE 6.9 mph - N/A   Light Drizzle
3:35 PM 39.4 °F 37.2 °F 38.3 °F 96% 29.54 in 1.0 mi SE 3.5 mph - N/A   Overcast
3:55 PM 39.4 °F 37.2 °F 38.3 °F 96% 29.54 in 1.0 mi SE 3.5 mph - N/A   Overcast
4:15 PM 39.6 °F 36.3 °F 38.5 °F 96% 29.55 in 1.0 mi West 4.6 mph - N/A   Overcast
4:35 PM 40.1 °F 38.0 °F 39.0 °F 96% 29.55 in 1.2 mi South 3.5 mph - N/A   Overcast
4:55 PM 40.1 °F - 38.8 °F 95% 29.56 in 1.2 mi Calm Calm - N/A   Overcast
5:15 PM 40.3 °F 38.2 °F 39.2 °F 96% 29.56 in 1.5 mi SE 3.5 mph - N/A   Overcast
5:35 PM 39.0 °F 31.0 °F 37.9 °F 96% 29.58 in 2.5 mi NW 13.8 mph 17.3 mph N/A   Drizzle
5:55 PM 36.9 °F 27.5 °F 35.8 °F 96% 29.58 in 10.0 mi NW 16.1 mph - N/A   Light Drizzle
6:15 PM 36.3 °F 26.8 °F 35.2 °F 96% 29.60 in 10.0 mi NW 16.1 mph - N/A   Overcast
6:35 PM 35.8 °F 26.1 °F 34.7 °F 96% 29.61 in 10.0 mi NNW 16.1 mph 26.5 mph N/A   Overcast
6:55 PM 35.2 °F 24.7 °F 33.8 °F 94% 29.62 in 10.0 mi NNW 18.4 mph - N/A   Overcast
7:15 PM 34.9 °F 23.6 °F 33.3 °F 94% 29.63 in 10.0 mi NNW 20.7 mph 27.6 mph N/A Rain Light Rain
7:35 PM 34.5 °F 23.4 °F 32.7 °F 93% 29.63 in 10.0 mi NW 19.6 mph 25.3 mph N/A Rain Light Rain
7:55 PM 34.2 °F 23.3 °F 32.4 °F 93% 29.63 in 10.0 mi NNW 18.4 mph 25.3 mph N/A   Light Drizzle
8:15 PM 34.3 °F 23.2 °F 32.4 °F 92% 29.63 in 10.0 mi NNW 19.6 mph 26.5 mph N/A   Overcast
8:35 PM 34.3 °F 23.2 °F 32.2 °F 92% 29.64 in 10.0 mi NNW 19.6 mph 31.1 mph N/A   Overcast
8:55 PM 34.3 °F 23.2 °F 32.0 °F 91% 29.65 in 10.0 mi NNW 19.6 mph 27.6 mph N/A   Overcast
9:15 PM 34.3 °F 23.2 °F 32.2 °F 92% 29.66 in 10.0 mi NNW 19.6 mph 23.0 mph N/A Rain Light Rain
9:35 PM 34.7 °F 24.7 °F 32.2 °F 91% 29.67 in 10.0 mi NNW 16.1 mph 26.5 mph N/A   Overcast
9:55 PM 34.7 °F 23.7 °F 32.0 °F 90% 29.67 in 10.0 mi NW 19.6 mph 28.8 mph N/A   Overcast
10:15 PM 34.7 °F 22.5 °F 32.2 °F 91% 29.68 in 10.0 mi NW 24.2 mph 29.9 mph N/A   Overcast
10:35 PM 34.7 °F 23.4 °F 32.0 °F 90% 29.70 in 10.0 mi NW 20.7 mph 26.5 mph N/A   Overcast
10:55 PM 34.3 °F 24.6 °F 32.0 °F 91% 29.70 in 10.0 mi NW 15.0 mph - N/A   Overcast
11:15 PM 34.7 °F 24.3 °F 32.0 °F 90% 29.71 in 10.0 mi NW 17.3 mph 21.9 mph N/A   Mostly Cloudy
11:35 PM 34.7 °F 24.7 °F 32.0 °F 90% 29.72 in 10.0 mi NW 16.1 mph - N/A   Mostly Cloudy
11:55 PM 33.8 °F 24.8 °F 31.3 °F 90% 29.72 in 10.0 mi NW 12.7 mph - N/A   Scattered Clouds